Location: B?ezina
(49.8085°N, 13.6013°E)
Time: 06:33:02
(UTC+00:00)

USA 245 - Pass Details

Date: 19 May 2025
Orbit: 292 x 1030 km, 97.9° (Epoch: 02 June)

Event Time Altitude Azimuth Distance (km) Brightness Sun altitude
Exits shadow 20:37:31 11° 189° (S) 1,892 5.6 -13.2°
Maximum altitude 20:41:31 49° 263° (W) 926 4.6 -13.6°
Drops below altitude 10° 20:46:45 10° 338° (NNW) 2,446 8.0 -14.1°
Sets 20:49:28 0° 344° (NNW) 3,497 9.0 -14.3°
